KENT RIDGE 1

Last updated on Sun Apr 12 2026 00:02:35 GMT+0000 (Coordinated Universal Time)

1 41167U 15077B 26101.48978248 .00003736 00000+0 12375-3 0 9998 2 41167 14.9806 41.8475 0008359 17.2527 342.8079 15.22731102570916
UTC large
Height (km)
Speed (km/s)
/
Latitude / Longitude
Inclination (degrees)
Orbital Period (minutes)
Azimuth
Elevation
Range (km)
Doppler Factor

Next 0 passes for location: London (51.5072 / 0.1276)

Sorry there are no passes over London.
KENT RIDGE 1